• MPC Preparation (Info)

  • MPEC 2010-V103: 2010 VA76

    The following Minor Planet Electronic Circular may be linked-to from your own Web pages, but must not otherwise be redistributed electronically.

    A form allowing access to any MPEC is at the bottom of this page.


    Read MPEC 2010-V102 Read MPEC 2010-V104


    M.P.E.C. 2010-V103                               Issued 2010 Nov.  9, 18:14 UT
    
         The Minor Planet Electronic Circulars contain information on unusual
             minor planets and routine data on comets.  They are published
       on behalf of Commission 20 of the International Astronomical Union by the
              Minor Planet Center, Smithsonian Astrophysical Observatory,
                              Cambridge, MA 02138, U.S.A.
    
                 Prepared using the Tamkin Foundation Computer Network
    
                                  MPC@CFA.HARVARD.EDU
           URL https://www.minorplanetcenter.org/iau/mpc.html  ISSN 1523-6714
    
                                       2010 VA76
    
    Observations:
         K10V76A* C2010 11 08.48961 03 42 07.98 +10 39 22.3          24.8 w EV103F51
         K10V76A  C2010 11 08.50233 03 42 08.75 +10 39 07.4          25.2 w EV103F51
         K10V76A  C2010 11 08.52919 03 42 10.39 +10 38 35.5          24.6 w EV103F51
         K10V76A 2C2010 11 09.48318503 43 22.104+10 19 48.86         21.8 R EV103568
         K10V76A 2C2010 11 09.48712803 43 22.356+10 19 43.99         21.8 R EV103568
    
    Observer details:
    568 Mauna Kea.  Observer M. Micheli.  Measurer D. J. Tholen.  2.24-m
        University of Hawaii reflector.
    F51 Pan-STARRS 1, Haleakala.  Observers N. Primak, A. Schultz, S. Watters,
        J. Thiel, T. Goggia.  Measurer PS1 Science Consortium.  1.8-m
        Ritchey-Chretien + CCD.
    
    Orbital elements:
    2010 VA76                                                Earth MOID = 0.1241 AU
    Epoch 2010 July 23.0 TT = JDT 2455400.5                 MPC
    M 308.88360              (2000.0)            P               Q
    n   0.31534560     Peri.  259.87125     -0.17063458     -0.98506309
    a   2.1376907      Node   199.99825     +0.92843485     -0.15287852
    e   0.4922499      Incl.    3.87644     +0.32998875     -0.07923931
    P   3.13           H   26.9           G   0.15           U   9
    Residuals in seconds of arc
    101108 F51  0.0   0.1+    101108 F51  0.1-  0.2-    101109 568  0.1+  0.1-
    101108 F51  0.0   0.1+    101109 568  0.1-  0.1+
    
    Ephemeris:
    2010 VA76                a,e,i = 2.14, 0.49, 4                   q = 1.0854
    Date    TT    R. A. (2000) Decl.     Delta      r     Elong.  Phase     V
    2010 11 10    03 44.03   +10 09.5    0.250    1.235   167.2    10.2    25.0
    2010 11 11    03 45.31   +09 48.9    0.244    1.230   167.4    10.1    24.9
    2010 11 12    03 46.62   +09 27.7    0.239    1.225   167.5    10.1    24.9
    2010 11 13    03 47.96   +09 05.9    0.235    1.220   167.6    10.0    24.8
    2010 11 14    03 49.33   +08 43.4    0.230    1.215   167.6    10.1    24.8
    2010 11 15    03 50.74   +08 20.4    0.225    1.210   167.5    10.2    24.7
    2010 11 16    03 52.19   +07 56.8    0.221    1.205   167.3    10.4    24.7
    2010 11 17    03 53.68   +07 32.5    0.216    1.201   167.1    10.6    24.6
    2010 11 18    03 55.21   +07 07.7    0.212    1.196   166.8    10.9    24.6
    2010 11 19    03 56.79   +06 42.3    0.208    1.191   166.4    11.2    24.6
    2010 11 20    03 58.42   +06 16.4    0.204    1.187   166.0    11.6    24.5
    2010 11 21    04 00.11   +05 49.8    0.200    1.182   165.5    12.1    24.5
    2010 11 22    04 01.85   +05 22.7    0.196    1.178   165.0    12.5    24.5
    2010 11 23    04 03.64   +04 55.1    0.192    1.174   164.5    13.0    24.4
    2010 11 24    04 05.50   +04 26.9    0.188    1.170   163.9    13.6    24.4
    2010 11 25    04 07.43   +03 58.3    0.185    1.165   163.3    14.1    24.4
    2010 11 26    04 09.42   +03 29.1    0.181    1.161   162.6    14.7    24.3
    2010 11 27    04 11.47   +02 59.5    0.178    1.157   162.0    15.3    24.3
    2010 11 28    04 13.61   +02 29.5    0.175    1.154   161.3    15.9    24.3
    2010 11 29    04 15.81   +01 59.0    0.172    1.150   160.6    16.6    24.3
    2010 11 30    04 18.10   +01 28.2    0.169    1.146   159.9    17.2    24.2
    
    Timothy B. Spahr             (C) Copyright 2010 MPC           M.P.E.C. 2010-V103
    

    Read MPEC 2010-V102 Read MPEC 2010-V104


    MPEC number:

    Enter an MPEC number in one of the following forms:

    • 1997-B01 (the full form)
    • J97B01 (the packed version of the full form)
    • B01 (the abbreviated form)